iso_date,Year,Hour,Min,DOY,POS_DOY,Lat,Lon,BP,Ts,Ta,has_bp,has_ts,has_ta,BuoyID,Buoy_Type,Buoy_Owner,Logistics,Hemisphere
2022-08-12T14:00:14Z,2022,14,0,224.5835,224.5835,89.9228,49.00467,-999.0,-999.0,-999.0,no,no,no,300234068326160,T_String,AWI,unknown,North
2022-08-12T16:00:11Z,2022,16,0,224.6668,224.6668,89.91733,49.84298,-999.0,-999.0,-999.0,no,no,no,300234068326160,T_String,AWI,unknown,North
2022-08-12T18:00:17Z,2022,18,0,224.7502,224.7502,89.91302,51.40228,-999.0,-999.0,-999.0,no,no,no,300234068326160,T_String,AWI,unknown,North
2022-08-12T20:00:14Z,2022,20,0,224.8335,224.8335,89.9078,52.99008,-999.0,-999.0,-999.0,no,no,no,300234068326160,T_String,AWI,unknown,North
2022-08-12T22:00:11Z,2022,22,0,224.9168,224.9168,89.90207,53.54254,-999.0,-999.0,-999.0,no,no,no,300234068326160,T_String,AWI,unknown,North
2022-08-13T00:00:17Z,2022,0,0,225.0002,225.0002,89.8969,53.54861,-999.0,-999.0,-999.0,no,no,no,300234068326160,T_String,AWI,unknown,North
2022-08-13T02:00:14Z,2022,2,0,225.0835,225.0835,89.89306,53.90491,-999.0,-999.0,-999.0,no,no,no,300234068326160,T_String,AWI,unknown,North
2022-08-13T04:00:11Z,2022,4,0,225.1668,225.1668,89.89,54.8241,-999.0,-999.0,-999.0,no,no,no,300234068326160,T_String,AWI,unknown,North
2022-08-13T06:00:17Z,2022,6,0,225.2502,225.2502,89.88624,55.65637,-999.0,-999.0,-999.0,no,no,no,300234068326160,T_String,AWI,unknown,North
2022-08-13T08:00:14Z,2022,8,0,225.3335,225.3335,89.88125,55.79386,-999.0,-999.0,-999.0,no,no,no,300234068326160,T_String,AWI,unknown,North
2022-08-13T10:00:11Z,2022,10,0,225.4168,225.4168,89.87497,55.08981,-999.0,-999.0,-999.0,no,no,no,300234068326160,T_String,AWI,unknown,North
2022-08-13T12:00:17Z,2022,12,0,225.5002,225.5002,89.86791,53.73113,-999.0,-999.0,-999.0,no,no,no,300234068326160,T_String,AWI,unknown,North
2022-08-13T14:00:14Z,2022,14,0,225.5835,225.5835,89.86162,52.37206,-999.0,-999.0,-999.0,no,no,no,300234068326160,T_String,AWI,unknown,North
2022-08-13T16:00:11Z,2022,16,0,225.6668,225.6668,89.85688,51.52296,-999.0,-999.0,-999.0,no,no,no,300234068326160,T_String,AWI,unknown,North
2022-08-13T18:00:17Z,2022,18,0,225.7502,225.7502,89.85292,51.27419,-999.0,-999.0,-999.0,no,no,no,300234068326160,T_String,AWI,unknown,North
2022-08-13T20:00:14Z,2022,20,0,225.8335,225.8335,89.84835,51.30118,-999.0,-999.0,-999.0,no,no,no,300234068326160,T_String,AWI,unknown,North
2022-08-13T22:00:11Z,2022,22,0,225.9168,225.9168,89.84343,51.07197,-999.0,-999.0,-999.0,no,no,no,300234068326160,T_String,AWI,unknown,North
2022-08-14T00:00:17Z,2022,0,0,226.0002,226.0002,89.8384,50.60556,-999.0,-999.0,-999.0,no,no,no,300234068326160,T_String,AWI,unknown,North
2022-08-14T02:00:14Z,2022,2,0,226.0835,226.0835,89.83406,50.11409,-999.0,-999.0,-999.0,no,no,no,300234068326160,T_String,AWI,unknown,North
2022-08-14T04:00:11Z,2022,4,0,226.1668,226.1668,89.83032,49.82983,-999.0,-999.0,-999.0,no,no,no,300234068326160,T_String,AWI,unknown,North
2022-08-14T06:00:17Z,2022,6,0,226.2502,226.2502,89.82641,49.82935,-999.0,-999.0,-999.0,no,no,no,300234068326160,T_String,AWI,unknown,North
2022-08-14T08:00:14Z,2022,8,0,226.3335,226.3335,89.82185,49.82692,-999.0,-999.0,-999.0,no,no,no,300234068326160,T_String,AWI,unknown,North
2022-08-14T10:00:11Z,2022,10,0,226.4168,226.4168,89.8169,49.58747,-999.0,-999.0,-999.0,no,no,no,300234068326160,T_String,AWI,unknown,North
2022-08-14T12:00:17Z,2022,12,0,226.5002,226.5002,89.81198,49.36429,-999.0,-999.0,-999.0,no,no,no,300234068326160,T_String,AWI,unknown,North
2022-08-14T14:00:14Z,2022,14,0,226.5835,226.5835,89.80738,49.32753,-999.0,-999.0,-999.0,no,no,no,300234068326160,T_String,AWI,unknown,North
2022-08-14T16:00:11Z,2022,16,0,226.6668,226.6668,89.80266,49.56959,-999.0,-999.0,-999.0,no,no,no,300234068326160,T_String,AWI,unknown,North
2022-08-14T18:00:17Z,2022,18,0,226.7502,226.7502,89.79778,49.86583,-999.0,-999.0,-999.0,no,no,no,300234068326160,T_String,AWI,unknown,North
2022-08-14T20:00:14Z,2022,20,0,226.8335,226.8335,89.79327,50.15295,-999.0,-999.0,-999.0,no,no,no,300234068326160,T_String,AWI,unknown,North
2022-08-14T22:00:11Z,2022,22,0,226.9168,226.9168,89.78896,50.22357,-999.0,-999.0,-999.0,no,no,no,300234068326160,T_String,AWI,unknown,North
2022-08-15T00:00:17Z,2022,0,0,227.0002,227.0002,89.78514,50.15832,-999.0,-999.0,-999.0,no,no,no,300234068326160,T_String,AWI,unknown,North
2022-08-15T02:00:14Z,2022,2,0,227.0835,227.0835,89.78173,50.16871,-999.0,-999.0,-999.0,no,no,no,300234068326160,T_String,AWI,unknown,North
2022-08-15T04:00:11Z,2022,4,0,227.1668,227.1668,89.77859,50.25005,-999.0,-999.0,-999.0,no,no,no,300234068326160,T_String,AWI,unknown,North
2022-08-15T06:00:17Z,2022,6,0,227.2502,227.2502,89.77548,50.37561,-999.0,-999.0,-999.0,no,no,no,300234068326160,T_String,AWI,unknown,North
2022-08-15T08:00:14Z,2022,8,0,227.3335,227.3335,89.77261,50.42569,-999.0,-999.0,-999.0,no,no,no,300234068326160,T_String,AWI,unknown,North
2022-08-15T10:00:11Z,2022,10,0,227.4168,227.4168,89.76996,50.2392,-999.0,-999.0,-999.0,no,no,no,300234068326160,T_String,AWI,unknown,North
2022-08-15T12:00:17Z,2022,12,0,227.5002,227.5002,89.76761,49.86005,-999.0,-999.0,-999.0,no,no,no,300234068326160,T_String,AWI,unknown,North
2022-08-15T14:00:14Z,2022,14,0,227.5835,227.5835,89.76549,49.43841,-999.0,-999.0,-999.0,no,no,no,300234068326160,T_String,AWI,unknown,North
2022-08-15T16:00:11Z,2022,16,0,227.6668,227.6668,89.76287,49.03368,-999.0,-999.0,-999.0,no,no,no,300234068326160,T_String,AWI,unknown,North
2022-08-15T18:00:17Z,2022,18,0,227.7502,227.7502,89.76009,48.50542,-999.0,-999.0,-999.0,no,no,no,300234068326160,T_String,AWI,unknown,North
2022-08-15T20:00:14Z,2022,20,0,227.8335,227.8335,89.75711,47.95024,-999.0,-999.0,-999.0,no,no,no,300234068326160,T_String,AWI,unknown,North
2022-08-15T22:00:11Z,2022,22,0,227.9168,227.9168,89.75398,47.44266,-999.0,-999.0,-999.0,no,no,no,300234068326160,T_String,AWI,unknown,North
2022-08-16T00:00:17Z,2022,0,0,228.0002,228.0002,89.74993,46.97945,-999.0,-999.0,-999.0,no,no,no,300234068326160,T_String,AWI,unknown,North
2022-08-16T02:00:14Z,2022,2,0,228.0835,228.0835,89.74612,46.63003,-999.0,-999.0,-999.0,no,no,no,300234068326160,T_String,AWI,unknown,North
2022-08-16T04:00:11Z,2022,4,0,228.1668,228.1668,89.74232,46.5798,-999.0,-999.0,-999.0,no,no,no,300234068326160,T_String,AWI,unknown,North
2022-08-16T06:00:17Z,2022,6,0,228.2502,228.2502,89.73795,46.56842,-999.0,-999.0,-999.0,no,no,no,300234068326160,T_String,AWI,unknown,North
2022-08-16T08:00:14Z,2022,8,0,228.3335,228.3335,89.73407,46.43792,-999.0,-999.0,-999.0,no,no,no,300234068326160,T_String,AWI,unknown,North
2022-08-16T10:00:11Z,2022,10,0,228.4168,228.4168,89.73107,46.27318,-999.0,-999.0,-999.0,no,no,no,300234068326160,T_String,AWI,unknown,North
2022-08-16T12:00:17Z,2022,12,0,228.5002,228.5002,89.72838,46.21752,-999.0,-999.0,-999.0,no,no,no,300234068326160,T_String,AWI,unknown,North
2022-08-16T14:00:14Z,2022,14,0,228.5835,228.5835,89.72519,46.31835,-999.0,-999.0,-999.0,no,no,no,300234068326160,T_String,AWI,unknown,North
2022-08-16T16:00:11Z,2022,16,0,228.6668,228.6668,89.7214,46.51415,-999.0,-999.0,-999.0,no,no,no,300234068326160,T_String,AWI,unknown,North
2022-08-16T18:00:17Z,2022,18,0,228.7502,228.7502,89.71653,46.90446,-999.0,-999.0,-999.0,no,no,no,300234068326160,T_String,AWI,unknown,North
2022-08-16T20:00:14Z,2022,20,0,228.8335,228.8335,89.70993,47.38107,-999.0,-999.0,-999.0,no,no,no,300234068326160,T_String,AWI,unknown,North
2022-08-16T22:00:11Z,2022,22,0,228.9168,228.9168,89.70216,47.75914,-999.0,-999.0,-999.0,no,no,no,300234068326160,T_String,AWI,unknown,North
2022-08-17T00:00:17Z,2022,0,0,229.0002,229.0002,89.69462,47.87536,-999.0,-999.0,-999.0,no,no,no,300234068326160,T_String,AWI,unknown,North
2022-08-17T02:00:14Z,2022,2,0,229.0835,229.0835,89.68823,47.88925,-999.0,-999.0,-999.0,no,no,no,300234068326160,T_String,AWI,unknown,North
2022-08-17T04:00:11Z,2022,4,0,229.1668,229.1668,89.68331,48.03433,-999.0,-999.0,-999.0,no,no,no,300234068326160,T_String,AWI,unknown,North
2022-08-17T06:00:17Z,2022,6,0,229.2502,229.2502,89.67876,48.44226,-999.0,-999.0,-999.0,no,no,no,300234068326160,T_String,AWI,unknown,North
2022-08-17T08:00:14Z,2022,8,0,229.3335,229.3335,89.67255,49.06579,-999.0,-999.0,-999.0,no,no,no,300234068326160,T_String,AWI,unknown,North
2022-08-17T10:00:11Z,2022,10,0,229.4168,229.4168,89.66503,49.47619,-999.0,-999.0,-999.0,no,no,no,300234068326160,T_String,AWI,unknown,North
2022-08-17T12:00:17Z,2022,12,0,229.5002,229.5002,89.65874,49.43755,-999.0,-999.0,-999.0,no,no,no,300234068326160,T_String,AWI,unknown,North
2022-08-17T14:00:14Z,2022,14,0,229.5835,229.5835,89.65612,49.24455,-999.0,-999.0,-999.0,no,no,no,300234068326160,T_String,AWI,unknown,North
2022-08-17T16:00:11Z,2022,16,0,229.6668,229.6668,89.65485,49.38712,-999.0,-999.0,-999.0,no,no,no,300234068326160,T_String,AWI,unknown,North
2022-08-17T18:00:17Z,2022,18,0,229.7502,229.7502,89.65328,49.73587,-999.0,-999.0,-999.0,no,no,no,300234068326160,T_String,AWI,unknown,North
2022-08-17T20:00:14Z,2022,20,0,229.8335,229.8335,89.64984,50.02652,-999.0,-999.0,-999.0,no,no,no,300234068326160,T_String,AWI,unknown,North
2022-08-17T22:00:11Z,2022,22,0,229.9168,229.9168,89.64586,50.01075,-999.0,-999.0,-999.0,no,no,no,300234068326160,T_String,AWI,unknown,North
2022-08-18T00:00:17Z,2022,0,0,230.0002,230.0002,89.64675,49.75174,-999.0,-999.0,-999.0,no,no,no,300234068326160,T_String,AWI,unknown,North
2022-08-18T02:00:14Z,2022,2,0,230.0835,230.0835,89.65262,49.5999,-999.0,-999.0,-999.0,no,no,no,300234068326160,T_String,AWI,unknown,North
2022-08-18T04:00:11Z,2022,4,0,230.1668,230.1668,89.66035,50.05302,-999.0,-999.0,-999.0,no,no,no,300234068326160,T_String,AWI,unknown,North
2022-08-18T06:00:17Z,2022,6,0,230.2502,230.2502,89.66445,50.90737,-999.0,-999.0,-999.0,no,no,no,300234068326160,T_String,AWI,unknown,North
2022-08-18T08:00:14Z,2022,8,0,230.3335,230.3335,89.66454,51.30304,-999.0,-999.0,-999.0,no,no,no,300234068326160,T_String,AWI,unknown,North
2022-08-18T10:00:11Z,2022,10,0,230.4168,230.4168,89.6644,51.02926,-999.0,-999.0,-999.0,no,no,no,300234068326160,T_String,AWI,unknown,North
2022-08-18T12:00:17Z,2022,12,0,230.5002,230.5002,89.66524,50.27333,-999.0,-999.0,-999.0,no,no,no,300234068326160,T_String,AWI,unknown,North
2022-08-18T14:00:14Z,2022,14,0,230.5835,230.5835,89.66806,49.5463,-999.0,-999.0,-999.0,no,no,no,300234068326160,T_String,AWI,unknown,North
2022-08-18T16:00:11Z,2022,16,0,230.6668,230.6668,89.67172,49.2881,-999.0,-999.0,-999.0,no,no,no,300234068326160,T_String,AWI,unknown,North
2022-08-18T18:00:17Z,2022,18,0,230.7502,230.7502,89.67329,49.34241,-999.0,-999.0,-999.0,no,no,no,300234068326160,T_String,AWI,unknown,North
2022-08-18T20:00:14Z,2022,20,0,230.8335,230.8335,89.67226,48.8697,-999.0,-999.0,-999.0,no,no,no,300234068326160,T_String,AWI,unknown,North
2022-08-18T22:00:11Z,2022,22,0,230.9168,230.9168,89.67213,47.77658,-999.0,-999.0,-999.0,no,no,no,300234068326160,T_String,AWI,unknown,North
2022-08-19T00:00:17Z,2022,0,0,231.0002,231.0002,89.67488,46.3831,-999.0,-999.0,-999.0,no,no,no,300234068326160,T_String,AWI,unknown,North
2022-08-19T02:00:14Z,2022,2,0,231.0835,231.0835,89.67987,44.65405,-999.0,-999.0,-999.0,no,no,no,300234068326160,T_String,AWI,unknown,North
2022-08-19T04:00:11Z,2022,4,0,231.1668,231.1668,89.68508,42.74314,-999.0,-999.0,-999.0,no,no,no,300234068326160,T_String,AWI,unknown,North
2022-08-19T06:00:17Z,2022,6,0,231.2502,231.2502,89.69107,41.08709,-999.0,-999.0,-999.0,no,no,no,300234068326160,T_String,AWI,unknown,North
2022-08-19T08:00:14Z,2022,8,0,231.3335,231.3335,89.69451,39.32332,-999.0,-999.0,-999.0,no,no,no,300234068326160,T_String,AWI,unknown,North
2022-08-19T10:00:11Z,2022,10,0,231.4168,231.4168,89.6957,37.15736,-999.0,-999.0,-999.0,no,no,no,300234068326160,T_String,AWI,unknown,North
2022-08-19T12:00:17Z,2022,12,0,231.5002,231.5002,89.69406,34.60697,-999.0,-999.0,-999.0,no,no,no,300234068326160,T_String,AWI,unknown,North
2022-08-19T14:00:14Z,2022,14,0,231.5835,231.5835,89.69343,31.6498,-999.0,-999.0,-999.0,no,no,no,300234068326160,T_String,AWI,unknown,North
2022-08-19T16:00:11Z,2022,16,0,231.6668,231.6668,89.69265,28.79082,-999.0,-999.0,-999.0,no,no,no,300234068326160,T_String,AWI,unknown,North
2022-08-19T18:00:17Z,2022,18,0,231.7502,231.7502,89.69075,26.04781,-999.0,-999.0,-999.0,no,no,no,300234068326160,T_String,AWI,unknown,North
2022-08-19T20:00:14Z,2022,20,0,231.8335,231.8335,89.68653,23.22908,-999.0,-999.0,-999.0,no,no,no,300234068326160,T_String,AWI,unknown,North
2022-08-19T22:00:11Z,2022,22,0,231.9168,231.9168,89.68168,20.17946,-999.0,-999.0,-999.0,no,no,no,300234068326160,T_String,AWI,unknown,North
2022-08-20T00:00:17Z,2022,0,0,232.0002,232.0002,89.67764,17.27734,-999.0,-999.0,-999.0,no,no,no,300234068326160,T_String,AWI,unknown,North
2022-08-20T02:00:14Z,2022,2,0,232.0835,232.0835,89.67263,14.64872,-999.0,-999.0,-999.0,no,no,no,300234068326160,T_String,AWI,unknown,North
2022-08-20T04:00:11Z,2022,4,0,232.1668,232.1668,89.66735,12.22982,-999.0,-999.0,-999.0,no,no,no,300234068326160,T_String,AWI,unknown,North
2022-08-20T06:00:17Z,2022,6,0,232.2502,232.2502,89.66209,10.18541,-999.0,-999.0,-999.0,no,no,no,300234068326160,T_String,AWI,unknown,North
2022-08-20T08:00:14Z,2022,8,0,232.3335,232.3335,89.65676,8.44623,-999.0,-999.0,-999.0,no,no,no,300234068326160,T_String,AWI,unknown,North
2022-08-20T10:00:11Z,2022,10,0,232.4168,232.4168,89.65184,6.96521,-999.0,-999.0,-999.0,no,no,no,300234068326160,T_String,AWI,unknown,North
2022-08-20T12:00:17Z,2022,12,0,232.5002,232.5002,89.64678,5.53816,-999.0,-999.0,-999.0,no,no,no,300234068326160,T_String,AWI,unknown,North
2022-08-20T14:00:14Z,2022,14,0,232.5835,232.5835,89.64172,4.15505,-999.0,-999.0,-999.0,no,no,no,300234068326160,T_String,AWI,unknown,North
2022-08-20T16:00:11Z,2022,16,0,232.6668,232.6668,89.63651,2.90535,-999.0,-999.0,-999.0,no,no,no,300234068326160,T_String,AWI,unknown,North
2022-08-20T18:00:17Z,2022,18,0,232.7502,232.7502,89.63087,1.76045,-999.0,-999.0,-999.0,no,no,no,300234068326160,T_String,AWI,unknown,North
2022-08-20T20:00:14Z,2022,20,0,232.8335,232.8335,89.62584,0.69116,-999.0,-999.0,-999.0,no,no,no,300234068326160,T_String,AWI,unknown,North
2022-08-20T22:00:11Z,2022,22,0,232.9168,232.9168,89.6212,-0.16216,-999.0,-999.0,-999.0,no,no,no,300234068326160,T_String,AWI,unknown,North
2022-08-21T00:00:17Z,2022,0,0,233.0002,233.0002,89.61663,-0.77703,-999.0,-999.0,-999.0,no,no,no,300234068326160,T_String,AWI,unknown,North
2022-08-21T02:00:14Z,2022,2,0,233.0835,233.0835,89.61125,-1.25052,-999.0,-999.0,-999.0,no,no,no,300234068326160,T_String,AWI,unknown,North
2022-08-21T04:00:11Z,2022,4,0,233.1668,233.1668,89.60466,-1.66509,-999.0,-999.0,-999.0,no,no,no,300234068326160,T_String,AWI,unknown,North
2022-08-21T06:00:17Z,2022,6,0,233.2502,233.2502,89.59713,-2.08505,-999.0,-999.0,-999.0,no,no,no,300234068326160,T_String,AWI,unknown,North
2022-08-21T08:00:14Z,2022,8,0,233.3335,233.3335,89.59024,-2.5111,-999.0,-999.0,-999.0,no,no,no,300234068326160,T_String,AWI,unknown,North
2022-08-21T10:00:11Z,2022,10,0,233.4168,233.4168,89.58445,-2.69234,-999.0,-999.0,-999.0,no,no,no,300234068326160,T_String,AWI,unknown,North
2022-08-21T12:00:17Z,2022,12,0,233.5002,233.5002,89.57776,-2.59131,-999.0,-999.0,-999.0,no,no,no,300234068326160,T_String,AWI,unknown,North
2022-08-21T14:00:14Z,2022,14,0,233.5835,233.5835,89.56954,-2.49692,-999.0,-999.0,-999.0,no,no,no,300234068326160,T_String,AWI,unknown,North
2022-08-21T16:00:11Z,2022,16,0,233.6668,233.6668,89.56122,-2.4569,-999.0,-999.0,-999.0,no,no,no,300234068326160,T_String,AWI,unknown,North
2022-08-21T18:00:17Z,2022,18,0,233.7502,233.7502,89.55382,-2.34274,-999.0,-999.0,-999.0,no,no,no,300234068326160,T_String,AWI,unknown,North
2022-08-21T20:00:14Z,2022,20,0,233.8335,233.8335,89.5477,-2.05824,-999.0,-999.0,-999.0,no,no,no,300234068326160,T_String,AWI,unknown,North
2022-08-21T22:00:11Z,2022,22,0,233.9168,233.9168,89.54183,-1.71412,-999.0,-999.0,-999.0,no,no,no,300234068326160,T_String,AWI,unknown,North
2022-08-22T00:00:17Z,2022,0,0,234.0002,234.0002,89.53581,-1.40796,-999.0,-999.0,-999.0,no,no,no,300234068326160,T_String,AWI,unknown,North
2022-08-22T02:00:14Z,2022,2,0,234.0835,234.0835,89.52979,-1.11031,-999.0,-999.0,-999.0,no,no,no,300234068326160,T_String,AWI,unknown,North
2022-08-22T04:00:11Z,2022,4,0,234.1668,234.1668,89.52283,-0.80397,-999.0,-999.0,-999.0,no,no,no,300234068326160,T_String,AWI,unknown,North
2022-08-22T06:00:17Z,2022,6,0,234.2502,234.2502,89.51515,-0.61472,-999.0,-999.0,-999.0,no,no,no,300234068326160,T_String,AWI,unknown,North
2022-08-22T08:00:14Z,2022,8,0,234.3335,234.3335,89.50749,-0.54041,-999.0,-999.0,-999.0,no,no,no,300234068326160,T_String,AWI,unknown,North
2022-08-22T10:00:11Z,2022,10,0,234.4168,234.4168,89.50043,-0.55971,-999.0,-999.0,-999.0,no,no,no,300234068326160,T_String,AWI,unknown,North
2022-08-22T12:00:17Z,2022,12,0,234.5002,234.5002,89.495,-0.70949,-999.0,-999.0,-999.0,no,no,no,300234068326160,T_String,AWI,unknown,North
2022-08-22T14:00:14Z,2022,14,0,234.5835,234.5835,89.49182,-0.86129,-999.0,-999.0,-999.0,no,no,no,300234068326160,T_String,AWI,unknown,North
2022-08-22T16:00:11Z,2022,16,0,234.6668,234.6668,89.48887,-0.96031,-999.0,-999.0,-999.0,no,no,no,300234068326160,T_String,AWI,unknown,North
2022-08-22T18:00:17Z,2022,18,0,234.7502,234.7502,89.4827,-0.79434,-999.0,-999.0,-999.0,no,no,no,300234068326160,T_String,AWI,unknown,North
2022-08-22T20:00:14Z,2022,20,0,234.8335,234.8335,89.47276,-0.5891,-999.0,-999.0,-999.0,no,no,no,300234068326160,T_String,AWI,unknown,North
2022-08-22T22:00:11Z,2022,22,0,234.9168,234.9168,89.46312,-0.34821,-999.0,-999.0,-999.0,no,no,no,300234068326160,T_String,AWI,unknown,North
2022-08-23T00:00:17Z,2022,0,0,235.0002,235.0002,89.45511,-0.02037,-999.0,-999.0,-999.0,no,no,no,300234068326160,T_String,AWI,unknown,North
2022-08-23T02:00:14Z,2022,2,0,235.0835,235.0835,89.44782,0.39632,-999.0,-999.0,-999.0,no,no,no,300234068326160,T_String,AWI,unknown,North
2022-08-23T04:00:11Z,2022,4,0,235.1668,235.1668,89.43955,0.74351,-999.0,-999.0,-999.0,no,no,no,300234068326160,T_String,AWI,unknown,North
2022-08-23T06:00:17Z,2022,6,0,235.2502,235.2502,89.43021,0.86621,-999.0,-999.0,-999.0,no,no,no,300234068326160,T_String,AWI,unknown,North
2022-08-23T08:00:14Z,2022,8,0,235.3335,235.3335,89.42157,0.78035,-999.0,-999.0,-999.0,no,no,no,300234068326160,T_String,AWI,unknown,North
2022-08-23T10:00:11Z,2022,10,0,235.4168,235.4168,89.41396,0.65562,-999.0,-999.0,-999.0,no,no,no,300234068326160,T_String,AWI,unknown,North
2022-08-23T12:00:17Z,2022,12,0,235.5002,235.5002,89.40781,0.56257,-999.0,-999.0,-999.0,no,no,no,300234068326160,T_String,AWI,unknown,North
2022-08-23T14:00:14Z,2022,14,0,235.5835,235.5835,89.40185,0.56036,-999.0,-999.0,-999.0,no,no,no,300234068326160,T_String,AWI,unknown,North
2022-08-23T16:00:11Z,2022,16,0,235.6668,235.6668,89.39544,0.53621,-999.0,-999.0,-999.0,no,no,no,300234068326160,T_String,AWI,unknown,North
2022-08-23T18:00:17Z,2022,18,0,235.7502,235.7502,89.39052,0.40589,-999.0,-999.0,-999.0,no,no,no,300234068326160,T_String,AWI,unknown,North
2022-08-23T20:00:14Z,2022,20,0,235.8335,235.8335,89.38803,0.17771,-999.0,-999.0,-999.0,no,no,no,300234068326160,T_String,AWI,unknown,North
2022-08-23T22:00:11Z,2022,22,0,235.9168,235.9168,89.38729,-0.16387,-999.0,-999.0,-999.0,no,no,no,300234068326160,T_String,AWI,unknown,North
2022-08-24T00:00:17Z,2022,0,0,236.0002,236.0002,89.38947,-0.44528,-999.0,-999.0,-999.0,no,no,no,300234068326160,T_String,AWI,unknown,North
2022-08-24T02:00:14Z,2022,2,0,236.0835,236.0835,89.39264,-0.3553,-999.0,-999.0,-999.0,no,no,no,300234068326160,T_String,AWI,unknown,North
2022-08-24T04:00:11Z,2022,4,0,236.1668,236.1668,89.39211,-0.09601,-999.0,-999.0,-999.0,no,no,no,300234068326160,T_String,AWI,unknown,North
2022-08-24T06:00:17Z,2022,6,0,236.2502,236.2502,89.38886,-0.05253,-999.0,-999.0,-999.0,no,no,no,300234068326160,T_String,AWI,unknown,North
2022-08-24T08:00:14Z,2022,8,0,236.3335,236.3335,89.38474,-0.13586,-999.0,-999.0,-999.0,no,no,no,300234068326160,T_String,AWI,unknown,North
2022-08-24T10:00:11Z,2022,10,0,236.4168,236.4168,89.38202,-0.09086,-999.0,-999.0,-999.0,no,no,no,300234068326160,T_String,AWI,unknown,North
2022-08-24T12:00:17Z,2022,12,0,236.5002,236.5002,89.38041,0.27287,-999.0,-999.0,-999.0,no,no,no,300234068326160,T_String,AWI,unknown,North
2022-08-24T14:00:14Z,2022,14,0,236.5835,236.5835,89.37805,1.00651,-999.0,-999.0,-999.0,no,no,no,300234068326160,T_String,AWI,unknown,North
2022-08-24T16:00:11Z,2022,16,0,236.6668,236.6668,89.37316,1.95112,-999.0,-999.0,-999.0,no,no,no,300234068326160,T_String,AWI,unknown,North
2022-08-24T18:00:17Z,2022,18,0,236.7502,236.7502,89.36526,2.8896,-999.0,-999.0,-999.0,no,no,no,300234068326160,T_String,AWI,unknown,North
2022-08-24T20:00:14Z,2022,20,0,236.8335,236.8335,89.35165,3.39081,-999.0,-999.0,-999.0,no,no,no,300234068326160,T_String,AWI,unknown,North
2022-08-24T22:00:11Z,2022,22,0,236.9168,236.9168,89.33505,3.23434,-999.0,-999.0,-999.0,no,no,no,300234068326160,T_String,AWI,unknown,North
2022-08-25T00:00:17Z,2022,0,0,237.0002,237.0002,89.319,2.70362,-999.0,-999.0,-999.0,no,no,no,300234068326160,T_String,AWI,unknown,North
2022-08-25T02:00:14Z,2022,2,0,237.0835,237.0835,89.30562,2.03503,-999.0,-999.0,-999.0,no,no,no,300234068326160,T_String,AWI,unknown,North
2022-08-25T04:00:11Z,2022,4,0,237.1668,237.1668,89.29506,1.35842,-999.0,-999.0,-999.0,no,no,no,300234068326160,T_String,AWI,unknown,North
2022-08-25T06:00:17Z,2022,6,0,237.2502,237.2502,89.28549,0.66317,-999.0,-999.0,-999.0,no,no,no,300234068326160,T_String,AWI,unknown,North
2022-08-25T08:00:14Z,2022,8,0,237.3335,237.3335,89.27686,-0.1823,-999.0,-999.0,-999.0,no,no,no,300234068326160,T_String,AWI,unknown,North
2022-08-25T10:00:11Z,2022,10,0,237.4168,237.4168,89.26436,-0.98765,-999.0,-999.0,-999.0,no,no,no,300234068326160,T_String,AWI,unknown,North
2022-08-25T12:00:17Z,2022,12,0,237.5002,237.5002,89.25163,-1.79899,-999.0,-999.0,-999.0,no,no,no,300234068326160,T_String,AWI,unknown,North
2022-08-25T14:00:14Z,2022,14,0,237.5835,237.5835,89.24045,-2.47369,-999.0,-999.0,-999.0,no,no,no,300234068326160,T_String,AWI,unknown,North
2022-08-25T16:00:11Z,2022,16,0,237.6668,237.6668,89.23044,-3.1006,-999.0,-999.0,-999.0,no,no,no,300234068326160,T_String,AWI,unknown,North
2022-08-25T18:00:17Z,2022,18,0,237.7502,237.7502,89.22007,-3.61453,-999.0,-999.0,-999.0,no,no,no,300234068326160,T_String,AWI,unknown,North
2022-08-25T20:00:14Z,2022,20,0,237.8335,237.8335,89.20956,-3.95864,-999.0,-999.0,-999.0,no,no,no,300234068326160,T_String,AWI,unknown,North
2022-08-25T22:00:11Z,2022,22,0,237.9168,237.9168,89.19897,-4.20935,-999.0,-999.0,-999.0,no,no,no,300234068326160,T_String,AWI,unknown,North
2022-08-26T00:00:17Z,2022,0,0,238.0002,238.0002,89.18897,-4.39827,-999.0,-999.0,-999.0,no,no,no,300234068326160,T_String,AWI,unknown,North
2022-08-26T02:00:14Z,2022,2,0,238.0835,238.0835,89.17943,-4.50647,-999.0,-999.0,-999.0,no,no,no,300234068326160,T_String,AWI,unknown,North
2022-08-26T04:00:11Z,2022,4,0,238.1668,238.1668,89.1705,-4.50578,-999.0,-999.0,-999.0,no,no,no,300234068326160,T_String,AWI,unknown,North
2022-08-26T06:00:17Z,2022,6,0,238.2502,238.2502,89.16206,-4.47043,-999.0,-999.0,-999.0,no,no,no,300234068326160,T_String,AWI,unknown,North
2022-08-26T08:00:14Z,2022,8,0,238.3335,238.3335,89.15407,-4.50542,-999.0,-999.0,-999.0,no,no,no,300234068326160,T_String,AWI,unknown,North
2022-08-26T10:00:11Z,2022,10,0,238.4168,238.4168,89.14683,-4.5705,-999.0,-999.0,-999.0,no,no,no,300234068326160,T_String,AWI,unknown,North
2022-08-26T12:00:17Z,2022,12,0,238.5002,238.5002,89.14146,-4.53404,-999.0,-999.0,-999.0,no,no,no,300234068326160,T_String,AWI,unknown,North
2022-08-26T14:00:14Z,2022,14,0,238.5835,238.5835,89.13655,-4.2812,-999.0,-999.0,-999.0,no,no,no,300234068326160,T_String,AWI,unknown,North
2022-08-26T16:00:11Z,2022,16,0,238.6668,238.6668,89.12967,-3.99688,-999.0,-999.0,-999.0,no,no,no,300234068326160,T_String,AWI,unknown,North
2022-08-26T18:00:17Z,2022,18,0,238.7502,238.7502,89.11996,-3.82622,-999.0,-999.0,-999.0,no,no,no,300234068326160,T_String,AWI,unknown,North